FENGYUN 1C DEB, 30273

Orbit data source: Space-Track

FENGYUN 1C DEB, 30273 is space debris in SSO originally from a launch on Mon, 10 May 1999 UTC launched from the Taiyaun Space Center, China (TSC). Fengyun 1C debris stems from the Chinese weather satellite Fengyun-1C, which was intentionally destroyed by a Chinese anti-satellite missile in 2007. This event dramatically increased the amount of space debris, with thousands of trackable fragments posing hazards to satellites and human spaceflight. The Fengyun 1C debris cloud has become a focal point in discussions about space sustainability and the need for international regulations to prevent the creation of new debris.

Loading next visibility...
Identifier
30273, 1999-025YJ
Orbit
SSO
Country
Flag of CNCN / PRC
Related business
Manufacturer
Unknown
Mission
Spacecraft
Bus & Motor
Unknown
Mass
Unknown
Launch date (UTC)
1999-05-10 (27 years ago)
Launch vehicle
Unknown
Launch site
Taiyaun Space Center, China (TSC)
Object type
Payload
Rocket body
Debris
Shape & HBR
Unknown shape, 0.2 m
Radar Cross Section
Medium (>0.1 m² and <1 m²)

Expand to show TLE details & history
Last TLE update: 6 days ago

TLE from 6 days ago
0 FENGYUN 1C DEB
1 30273U 99025YJ  26155.28293034  .00000751  00000-0  50240-3 0  9997
2 30273  98.8292 169.7450 0062502 125.2028 299.8945 14.02954814989620
Epoch: 2026-06-04T06:47Z
TLE epoch observation values (Epoch: 2026-06-04T06:47:25.181Z)
Latitude
63.17897°
Longitude
157.36624°
Altitude
871.988 km
Speed
7.434 km/s
True Right ascension
10h 07m 48s
True Declination
63° 02' 33"
Sunlit
Object was in daylight at epoch
Visualization orbit readout
Latitude
Unknown
Longitude
Unknown
Altitude
Unknown
Speed
Unknown
Apparent Right ascension
Unknown
Apparent Declination
Unknown
Sunlit
N/A
Visualization observer readout
Local Sidereal Time
00:11:36
Azimuth
Unknown
Elevation
Unknown
Doppler factor
Unknown
Orbital elements
Apogee altitude
926.138 km
Perigee altitude
835.398 km
Semi-major axis
7,258.905 km
Eccentricity
0.00625
Inclination
98.8292°
RAAN
169.745°
Arg. of periapsis
125.2028°
True anomaly
299.27116°
Mean anomaly
299.8945°
Eccentric anomaly
299.58307°
Mean motion
3.50943 °/min
Orbital period
102.58 mins
BSTAR
0.0005024
Loading maneuver chart data...
Computing Atmospheric mass density...
Loading historical data...
Loading historical data...
Loading historical data...
Loading historical data...
Loading historical data...
Loading historical data...
Loading historical data...

Documentation

Showing up to 5 results
|